Location: Unnamed
(45.1820°N, 67.3015°W)
Time: 08:24:41
(UTC-04:00)

ISS - Pass Details

Date: 17 February 2026
Orbit: 416 x 427 km, 51.6° (Epoch: 6 March)

Event Time Altitude Azimuth Distance (km) Brightness Sun altitude
Exits shadow 06:51:15 - 276° (W) 1,557 -1.6 -7.0°
Reaches altitude 10° 06:51:25 10° 277° (W) 1,494 -1.7 -7.0°
Maximum altitude 06:54:31 34° 345° (NNW) 706 -2.8 -6.4°
Drops below altitude 10° 06:57:37 10° 52° (NE) 1,495 -0.3 -5.9°
Sets 06:59:50 0° 62° (ENE) 2,359 1.0 -5.5°
